This is the latest recevied weather packets stored in our database for station/object LU1MQF-13. If no packets are shown the sender has not sent any weather packets the latest 10 day(s).
| Time | Temp. | Humidity | Pressure | Rain* | Wind** | Luminosity | Snow |
|---|---|---|---|---|---|---|---|
| 1777794123 | 12.78° C | 35% | 940.1 hPa | - | - | - | - |
| 1777793223 | 12.78° C | 35% | 940.3 hPa | - | - | - | - |
| 1777792323 | 12.78° C | 35% | 940.4 hPa | - | - | - | - |
| 1777791423 | 12.78° C | 35% | 940.6 hPa | - | - | - | - |
| 1777790522 | 12.78° C | 35% | 940.9 hPa | - | - | - | - |
| 1777789623 | 12.78° C | 35% | 941.2 hPa | - | - | - | - |
| 1777788723 | 12.78° C | 35% | 941.5 hPa | - | - | - | - |
| 1777787823 | 12.78° C | 35% | 942 hPa | - | - | - | - |
| 1777786923 | 12.78° C | 35% | 942.2 hPa | - | - | - | - |
| 1777786023 | 12.78° C | 36% | 942.4 hPa | - | - | - | - |
| 1777785122 | 12.78° C | 36% | 942.6 hPa | - | - | - | - |
| 1777784223 | 13.89° C | 38% | 942.6 hPa | - | - | - | - |
| 1777783323 | 12.78° C | 34% | 942.9 hPa | - | - | - | - |
| 1777782423 | 12.78° C | 35% | 943.1 hPa | - | - | - | - |
| 1777781529 | 12.78° C | 34% | 943.1 hPa | - | - | - | - |
| 1777780622 | 12.78° C | 34% | 943.2 hPa | - | - | - | - |
| 1777779722 | 12.78° C | 34% | 943.3 hPa | - | - | - | - |
| 1777778823 | 12.78° C | 34% | 943.7 hPa | - | - | - | - |
| 1777777923 | 12.78° C | 34% | 944 hPa | - | - | - | - |
| 1777777022 | 12.78° C | 35% | 944.5 hPa | - | - | - | - |
| 1777776122 | 12.78° C | 36% | 944.7 hPa | - | - | - | - |
| 1777775222 | 13.89° C | 40% | 945 hPa | - | - | - | - |
| 1777774322 | 13.89° C | 34% | 945 hPa | - | - | - | - |
| 1777773422 | 13.89° C | 35% | 945.4 hPa | - | - | - | - |
| 1777772523 | 13.89° C | 35% | 945.5 hPa | - | - | - | - |
* Rain since midnight (hover to see other rain measurements)
** Current wind speed in m/s (hover to see current wind gust speed)